EW4750 Weather Reports


time (UTC)temp
F
wind
direction
speed
knots
gust
knots
rain 1hr
in
rain 24hr
in
rain mn
in
humidity
%
barometer
mb
20260507094606 54 360 8.7 20.0 0.00 0.00 0.00 63 1012.8
20260507093053 54 360 5.2 13.9 0.00 0.00 0.00 64 1013.0
20260507091552 54 360 8.7 20.9 0.00 0.00 0.00 64 1012.6
20260507090047 53 360 2.6 10.4 0.00 0.00 0.00 67 1012.7
20260507084556 53 360 2.6 11.3 0.00 0.00 0.00 67 1012.7
20260507083044 54 360 4.3 13.9 0.00 0.00 0.00 65 1012.4
20260507081542 54 360 3.5 11.3 0.00 0.00 0.00 65 1012.4
20260507080041 54 360 3.5 15.6 0.00 0.00 0.00 64 1012.4
20260507074545 54 360 3.5 15.6 0.00 0.00 0.00 64 1012.3
20260507073038 54 360 3.5 13.9 0.00 0.00 0.00 64 1012.1
20260507071539 55 360 7.0 16.5 0.00 0.00 0.00 63 1012.4
20260507070031 55 360 5.2 13.9 0.00 0.00 0.00 63 1012.7
20260507064536 55 360 6.1 19.1 0.00 0.00 0.00 64 1012.6
20260507063029 56 360 7.8 18.2 0.00 0.00 0.00 63 1012.4
20260507061534 56 360 7.8 19.1 0.00 0.00 0.00 64 1012.5
20260507060035 55 360 7.0 19.1 0.00 0.00 0.00 65 1012.5
20260507054536 55 360 3.5 13.0 0.00 0.00 0.00 66 1012.8
20260507053026 56 360 5.2 13.0 0.00 0.00 0.00 65 1013.0
20260507051522 56 360 6.1 13.0 0.00 0.00 0.00 65 1013.0
20260507050046 56 360 5.2 17.4 0.00 0.00 0.00 64 1013.1
20260507044524 56 360 6.1 13.9 0.00 0.00 0.00 65 1012.9
20260507043020 56 360 6.1 13.9 0.00 0.00 0.00 63 1012.7
20260507041517 57 360 7.0 18.2 0.00 0.00 0.00 62 1012.4
20260507040020 58 360 6.1 17.4 0.00 0.00 0.00 61 1012.2
20260507034516 58 360 5.2 18.2 0.00 0.00 0.00 62 1012.0
20260507033020 59 360 5.2 12.2 0.00 0.00 0.00 60 1011.9
20260507031512 60 360 1.7 13.0 0.00 0.00 0.00 58 1011.9
20260507030010 61 360 4.3 11.3 0.00 0.00 0.00 55 1011.9
20260507024515 62 360 1.7 10.4 0.00 0.00 0.00 55 1011.8
20260507023008 63 360 2.6 13.0 0.00 0.00 0.00 55 1011.5
20260507021516 64 360 4.3 11.3 0.00 0.00 0.00 53 1011.4
20260507020005 65 360 4.3 12.2 0.00 0.00 0.00 52 1011.4
20260507014505 65 360 5.2 17.4 0.00 0.00 0.00 54 1011.2
20260507013007 63 360 8.7 20.0 0.00 0.00 0.00 53 1011.0
20260507011509 64 360 10.4 21.7 0.00 0.00 0.00 52 1010.9
20260507010004 65 360 8.7 19.1 0.00 0.00 0.00 49 1010.8
20260507004502 66 360 7.8 20.0 0.00 0.00 0.00 49 1010.9
20260507003001 66 360 7.0 16.5 0.00 0.00 0.00 49 1011.0
20260507001608 67 360 7.0 16.5 0.00 0.00 0.00 48 1010.9
20260507000059 67 360 7.0 16.5 0.00 0.00 0.00 48 1010.8
20260506234624 68 360 4.3 19.1 0.00 0.00 0.00 47 1010.8
20260506233100 68 360 7.0 18.2 0.00 0.00 0.00 45 1010.7
20260506231558 69 360 5.2 16.5 0.00 0.00 0.00 45 1010.6
20260506230058 69 360 5.2 17.4 0.00 0.00 0.00 45 1010.6
20260506224555 69 360 4.3 19.1 0.00 0.00 0.00 44 1010.6
20260506223100 70 360 5.2 13.9 0.00 0.00 0.00 43 1010.6
20260506221556 71 360 6.1 20.9 0.00 0.00 0.00 43 1010.8
20260506220054 71 360 7.0 17.4 0.00 0.00 0.00 45 1010.6
20260506214553 73 360 7.0 18.2 0.00 0.00 0.00 46 1010.6
20260506213052 73 360 7.0 20.0 0.00 0.00 0.00 45 1010.5
20260506211551 74 360 7.8 17.4 0.00 0.00 0.00 45 1010.3
20260506210051 74 360 7.0 17.4 0.00 0.00 0.00 45 1010.2
20260506204556 74 360 8.7 19.1 0.00 0.00 0.00 44 1010.3
20260506203048 75 360 7.0 17.4 0.00 0.00 0.00 46 1010.2
20260506201548 76 360 7.0 17.4 0.00 0.00 0.00 42 1010.2
20260506200106 76 360 7.0 13.9 0.00 0.00 0.00 42 1010.2
20260506194553 76 360 7.0 18.2 0.00 0.00 0.00 42 1010.2
20260506193045 76 360 9.6 21.7 0.00 0.00 0.00 42 1010.3
20260506191545 75 360 9.6 20.9 0.00 0.00 0.00 41 1010.3
20260506190046 75 360 13.9 24.3 0.00 0.00 0.00 38 1010.2
20260506184542 75 360 11.3 21.7 0.00 0.00 0.00 40 1010.0
20260506183057 75 360 10.4 21.7 0.00 0.00 0.00 42 1009.8
20260506181544 74 360 10.4 19.1 0.00 0.00 0.00 41 1010.1
20260506180039 74 360 10.4 21.7 0.00 0.00 0.00 40 1010.1
20260506174537 74 360 10.4 22.6 0.00 0.00 0.00 40 1010.3
20260506173037 75 222 7.8 13.9 0.00 0.00 0.00 42 1010.3
20260506171543 74 227 8.7 20.0 0.00 0.00 0.00 39 1010.4
20260506170038 73 277 5.2 15.6 0.00 0.00 0.00 42 1010.6
20260506164530 72 210 5.2 9.6 0.00 0.00 0.00 45 1010.6
20260506163024 69 236 4.3 9.6 0.00 0.00 0.00 49 1010.8
20260506161523 68 242 4.3 7.8 0.00 0.00 0.00 52 1010.8
20260506160033 68 304 0.0 5.2 0.00 0.00 0.00 53 1011.1
20260506154515 66 360 0.0 5.2 0.00 0.00 0.00 56 1011.1
20260506153011 65 360 0.0 3.5 0.00 0.00 0.00 56 1011.3
20260506151509 64 360 2.6 7.8 0.00 0.00 0.00 58 1011.4
20260506150008 62 360 2.6 6.1 0.00 0.00 0.00 60 1011.3
20260506144622 61 360 0.0 1.7 0.00 0.00 0.00 63 1011.3
20260506143103 60 360 1.7 7.0 0.00 0.00 0.00 65 1011.2
20260506141558 59 360 1.7 6.1 0.00 0.00 0.00 66 1011.4
20260506140106 57 360 0.9 3.5 0.00 0.00 0.00 70 1011.3
20260506134554 57 360 0.9 5.2 0.00 0.00 0.00 71 1011.2
20260506133053 55 360 0.0 0.0 0.00 0.00 0.00 73 1011.2
20260506131553 53 360 0.9 4.3 0.00 0.00 0.00 76 1011.0
20260506130105 51 360 0.0 1.7 0.00 0.00 0.00 78 1011.1
20260506124548 51 360 0.0 0.0 0.00 0.00 0.00 78 1010.9
20260506123046 50 360 0.0 3.5 0.00 0.00 0.00 78 1010.9
20260506121543 52 360 0.0 0.0 0.00 0.00 0.00 75 1010.8
20260506120042 53 360 0.0 0.0 0.00 0.00 0.00 73 1010.7
20260506114542 55 360 0.0 1.7 0.00 0.00 0.00 70 1010.5
20260506113037 56 360 0.9 4.3 0.00 0.00 0.00 68 1010.5
20260506111538 56 360 0.0 4.3 0.00 0.00 0.00 68 1010.4
20260506110037 56 360 2.6 6.1 0.00 0.00 0.00 67 1010.4
20260506104532 54 360 3.5 7.0 0.00 0.00 0.00 71 1010.2
20260506103026 55 360 0.9 3.5 0.00 0.00 0.00 67 1010.1
20260506101544 56 360 0.9 5.2 0.00 0.00 0.00 66 1010.0
20260506100024 57 360 2.6 6.1 0.00 0.00 0.00 65 1010.0